Hourly Weather Yam

Today, 23 April, Friday

Time Temperature Precipitation Wind Pressure Humidity
00:00 +12°C° 0 mm 1 mps 733 mmHg 55%
01:00 +12°C° 0 mm 1 mps 733 mmHg 56%
02:00 +12°C° 0 mm 1 mps 733 mmHg 57%
03:00 +11°C° 0 mm 1 mps 733 mmHg 58%
04:00 +11°C° 0 mm 1 mps 733 mmHg 59%
05:00 +11°C° 0 mm 1 mps 733 mmHg 58%
06:00 +12°C° 0 mm 1 mps 733 mmHg 55%
07:00 +13°C° 0 mm 1 mps 733 mmHg 52%
08:00 +15°C° 0 mm 1 mps 733 mmHg 49%
09:00 +17°C° 0 mm 2 mps 733 mmHg 43%
10:00 +19°C° 0 mm 2 mps 733 mmHg 38%
11:00 +21°C° 0 mm 3 mps 733 mmHg 32%
12:00 +22°C° 0 mm 3 mps 733 mmHg 29%
13:00 +23°C° 0 mm 4 mps 732 mmHg 27%
14:00 +25°C° 0 mm 4 mps 732 mmHg 24%
15:00 +25°C° 0 mm 4 mps 732 mmHg 23%
16:00 +25°C° 0 mm 4 mps 731 mmHg 23%
17:00 +25°C° 0 mm 4 mps 731 mmHg 23%
18:00 +22°C° 0 mm 3 mps 731 mmHg 26%
19:00 +20°C° 0 mm 3 mps 731 mmHg 30%
20:00 +18°C° 0 mm 2 mps 731 mmHg 33%
21:00 +18°C° 0 mm 2 mps 730 mmHg 35%
22:00 +18°C° 0 mm 1 mps 730 mmHg 37%
23:00 +16°C° 0 mm 1 mps 730 mmHg 39%

Tomorrow, 24 April, Saturday

Time Temperature Precipitation Wind Pressure Humidity
00:00 +16°C° 0 mm 1 mps 730 mmHg 40%
01:00 +15°C° 0 mm 1 mps 729 mmHg 40%
02:00 +15°C° 0 mm 1 mps 729 mmHg 40%
03:00 +15°C° 0 mm 1 mps 729 mmHg 41%
04:00 +13°C° 0 mm 0 mps 729 mmHg 41%
05:00 +13°C° 0 mm 0 mps 729 mmHg 42%
06:00 +14°C° 0 mm 0 mps 729 mmHg 39%
07:00 +16°C° 0 mm 0 mps 730 mmHg 36%
08:00 +18°C° 0 mm 0 mps 730 mmHg 34%
09:00 +21°C° 0 mm 1 mps 730 mmHg 31%
10:00 +23°C° 0 mm 1 mps 730 mmHg 28%
11:00 +24°C° 0 mm 2 mps 730 mmHg 26%
12:00 +25°C° 0 mm 2 mps 730 mmHg 25%
13:00 +26°C° 0 mm 2 mps 730 mmHg 25%
14:00 +26°C° 0 mm 1 mps 730 mmHg 24%
15:00 +26°C° 0 mm 1 mps 730 mmHg 25%
16:00 +26°C° 0 mm 1 mps 730 mmHg 26%
17:00 +26°C° 0 mm 1 mps 731 mmHg 27%
18:00 +24°C° 0 mm 1 mps 731 mmHg 30%
19:00 +23°C° 0 mm 1 mps 731 mmHg 33%
20:00 +21°C° 0 mm 1 mps 731 mmHg 36%
21:00 +20°C° 0 mm 1 mps 731 mmHg 38%
22:00 +19°C° 0 mm 1 mps 730 mmHg 40%
23:00 +19°C° 0 mm 1 mps 730 mmHg 43%

Day after tomorrow, 25 April, Sunday

Time Temperature Precipitation Wind Pressure Humidity
00:00 +18°C° 0 mm 1 mps 730 mmHg 43%
01:00 +18°C° 0 mm 1 mps 730 mmHg 44%
02:00 +18°C° 0 mm 1 mps 730 mmHg 45%
03:00 +16°C° 0 mm 1 mps 730 mmHg 45%
04:00 +16°C° 0 mm 1 mps 730 mmHg 45%
05:00 +16°C° 0 mm 1 mps 730 mmHg 46%
06:00 +18°C° 0 mm 1 mps 730 mmHg 42%
07:00 +20°C° 0 mm 1 mps 731 mmHg 39%
08:00 +22°C° 0 mm 1 mps 731 mmHg 36%
09:00 +23°C° 0 mm 1 mps 731 mmHg 32%
10:00 +25°C° 0 mm 2 mps 731 mmHg 28%
11:00 +27°C° 0 mm 2 mps 731 mmHg 24%
12:00 +28°C° 0 mm 2 mps 731 mmHg 23%
13:00 +29°C° 0 mm 2 mps 731 mmHg 21%
14:00 +30°C° 0 mm 2 mps 730 mmHg 19%
15:00 +30°C° 0 mm 3 mps 730 mmHg 19%
16:00 +30°C° 0 mm 3 mps 730 mmHg 20%
17:00 +30°C° 0 mm 3 mps 730 mmHg 20%
18:00 +28°C° 0 mm 3 mps 730 mmHg 24%
19:00 +26°C° 0 mm 3 mps 730 mmHg 27%
20:00 +23°C° 0 mm 2 mps 730 mmHg 31%
21:00 +23°C° 0 mm 2 mps 730 mmHg 33%
22:00 +22°C° 0 mm 1 mps 730 mmHg 34%
23:00 +21°C° 0 mm 1 mps 730 mmHg 36%

26 April, Monday

Time Temperature Precipitation Wind Pressure Humidity
00:00 +21°C° 0 mm 1 mps 729 mmHg 38%
01:00 +20°C° 0 mm 1 mps 729 mmHg 39%
02:00 +20°C° 0 mm 1 mps 729 mmHg 40%
03:00 +19°C° 0 mm 1 mps 729 mmHg 41%
04:00 +19°C° 0 mm 1 mps 729 mmHg 42%
05:00 +17°C° 0 mm 0 mps 729 mmHg 42%
06:00 +20°C° 0 mm 1 mps 729 mmHg 41%
07:00 +21°C° 0 mm 1 mps 729 mmHg 39%
08:00 +23°C° 0 mm 1 mps 729 mmHg 37%
09:00 +24°C° 0 mm 1 mps 729 mmHg 34%
10:00 +25°C° 0 mm 1 mps 729 mmHg 32%
11:00 +27°C° 0 mm 1 mps 729 mmHg 30%
12:00 +28°C° 0 mm 1 mps 729 mmHg 28%
13:00 +28°C° 0 mm 2 mps 728 mmHg 27%
14:00 +29°C° 0 mm 2 mps 728 mmHg 25%
15:00 +29°C° 0 mm 2 mps 728 mmHg 25%
16:00 +30°C° 0 mm 2 mps 728 mmHg 24%
17:00 +30°C° 0 mm 3 mps 728 mmHg 23%
18:00 +28°C° 0 mm 2 mps 727 mmHg 26%
19:00 +27°C° 0 mm 2 mps 727 mmHg 30%
20:00 +25°C° 0 mm 2 mps 727 mmHg 33%
21:00 +24°C° 0 mm 1 mps 727 mmHg 34%
22:00 +23°C° 0 mm 1 mps 726 mmHg 36%
23:00 +23°C° 0 mm 1 mps 726 mmHg 38%

27 April, Tuesday

Time Temperature Precipitation Wind Pressure Humidity
00:00 +22°C° 0 mm 1 mps 726 mmHg 38%
01:00 +22°C° 0 mm 1 mps 726 mmHg 39%
02:00 +21°C° 0 mm 1 mps 725 mmHg 40%
03:00 +21°C° 0 mm 1 mps 725 mmHg 41%
04:00 +20°C° 0 mm 1 mps 725 mmHg 41%
05:00 +20°C° 0 mm 1 mps 725 mmHg 42%
06:00 +21°C° 0 mm 1 mps 725 mmHg 40%
07:00 +23°C° 0 mm 1 mps 726 mmHg 37%
08:00 +25°C° 0 mm 1 mps 726 mmHg 35%
09:00 +26°C° 0 mm 1 mps 726 mmHg 32%
10:00 +28°C° 0 mm 2 mps 726 mmHg 29%
11:00 +30°C° 0 mm 2 mps 726 mmHg 25%
12:00 +31°C° 0 mm 2 mps 726 mmHg 24%
13:00 +32°C° 0 mm 2 mps 725 mmHg 22%
14:00 +34°C° 0 mm 2 mps 725 mmHg 20%
15:00 +35°C° 0 mm 2 mps 725 mmHg 19%
16:00 +35°C° 0 mm 2 mps 725 mmHg 19%
17:00 +34°C° 0 mm 1 mps 724 mmHg 18%
18:00 +32°C° 0 mm 2 mps 724 mmHg 22%
19:00 +30°C° 0 mm 2 mps 724 mmHg 26%
20:00 +27°C° 0 mm 2 mps 724 mmHg 30%
21:00 +27°C° 0 mm 2 mps 724 mmHg 31%
22:00 +26°C° 0 mm 2 mps 724 mmHg 32%
23:00 +25°C° 0 mm 2 mps 724 mmHg 33%

28 April, Wednesday

Time Temperature Precipitation Wind Pressure Humidity
00:00 +25°C° 0 mm 2 mps 724 mmHg 34%
01:00 +24°C° 0 mm 2 mps 724 mmHg 34%
02:00 +24°C° 0 mm 2 mps 724 mmHg 35%
03:00 +24°C° 0 mm 2 mps 724 mmHg 35%
04:00 +23°C° 0 mm 2 mps 724 mmHg 36%
05:00 +23°C° 0 mm 2 mps 724 mmHg 36%
06:00 +25°C° 0 mm 1 mps 725 mmHg 34%
07:00 +27°C° 0 mm 1 mps 725 mmHg 32%
08:00 +29°C° 0 mm 1 mps 726 mmHg 30%
09:00 +30°C° 0 mm 1 mps 726 mmHg 27%
10:00 +32°C° 0 mm 1 mps 725 mmHg 24%
11:00 +34°C° 0 mm 1 mps 725 mmHg 20%
12:00 +35°C° 0 mm 1 mps 725 mmHg 19%
13:00 +36°C° 0 mm 1 mps 725 mmHg 17%
14:00 +36°C° 0 mm 1 mps 725 mmHg 16%
15:00 +36°C° 0 mm 1 mps 724 mmHg 16%
16:00 +36°C° 0 mm 1 mps 724 mmHg 16%
17:00 +36°C° 0 mm 1 mps 724 mmHg 17%
18:00 +35°C° 0 mm 2 mps 724 mmHg 20%
19:00 +32°C° 0 mm 2 mps 724 mmHg 23%
20:00 +30°C° 0 mm 2 mps 724 mmHg 26%
21:00 +29°C° 0 mm 2 mps 724 mmHg 27%
22:00 +28°C° 0 mm 2 mps 724 mmHg 27%
23:00 +27°C° 0 mm 2 mps 724 mmHg 28%
Show more